Content
SEND FEEDBACK

Daily
Averages
Monthly
Summary
French Polynesia

PAPEETE, FRENCH POLYNESIA


Home > Oceania > French Polynesia
Elevation: 7 feet     Latitude: 17 33S     Longitude: 149 36W

WEATHER
 
SELECT A DAY
Number of Records: 208,679;   Date Range: 6/30/96 - 8/10/14
 
SHARE

PRINT THIS DATA

[ ← Previous Day ]
WEATHER ALMANAC - JANUARY 2, 2013
[ Next Day → ]
[ °C ]   °F
Weather ElementAverageHighLow
Temperature81.5 °F87.8 °F (4:00 pm)75.2 °F (4:00 am)
Dewpoint70.9 °F73.4 °F (9:30 am)68 °F (7:00 pm)
Humidity69.7 %89 % (4:00 am)54 % (2:00 pm)
Barometer29.77 in29.84 in (8:00 am)29.71 in (3:00 pm)
Wind Speed5.7 mph15.7 mph (11:00 am)
Weather ElementAverage
Visibility7.7 mi
Wind DirectionS (182.1 °)

Weather ElementTotal
Precipitation---
Cooling Degree Days16.5 (Base 65)
Growing Degree Days31.5 (Base 50)
Averaged from 52 records on January 2, 2013
WEATHER CONDITIONS BREAKOUT
WIND DIRECTION BREAKOUT
WEATHER BY HOUR - JANUARY 2, 2013
[ °C ]   °F
Local TimeTemperatureDewpointHumidityBarometerVisibilityWind DirectionWind SpeedGust SpeedPrecipitationEventsConditions
12:30 AM78.8 °F71.6 °F78 %29.80 in6.2 miVariable2.3 mphPartly Cloudy
2:00 AM76.0 °F71.0 °F80 %29.78 in12.0 miSouth (180°)4.6 mphScattered Clouds
2:00 AM77.0 °F71.6 °F83 %29.77 in6.2 miSouth (180°)3.5 mphPartly Cloudy
2:30 AM77.0 °F71.6 °F83 %29.77 in6.2 miSouth (180°)5.8 mphPartly Cloudy
3:00 AM77.0 °F71.6 °F83 %29.77 in6.2 miEast (100°)4.6 mphPartly Cloudy
3:30 AM77.0 °F69.8 °F78 %29.77 in6.2 miENE (70°)4.6 mph
4:00 AM75.2 °F71.6 °F89 %29.77 in6.2 miVariable2.3 mph
4:30 AM75.2 °F69.8 °F83 %29.77 in6.2 miSouth (180°)5.8 mphPartly Cloudy
5:00 AM76.0 °F71.0 °F79 %29.79 in31.0 miSouth (170°)4.5 mphClear
5:00 AM75.2 °F71.6 °F89 %29.77 in6.2 miSouth (170°)2.3 mph
5:30 AM75.2 °F71.6 °F89 %29.80 in6.2 miVariable1.2 mph
6:00 AM77.0 °F71.6 °F83 %29.80 in6.2 miESE (120°)3.5 mphMostly Cloudy
6:30 AM77.0 °F69.8 °F78 %29.80 in6.2 miSouth (190°)10.4 mphMostly Cloudy
7:00 AM78.8 °F71.6 °F78 %29.83 in6.2 miVariable3.5 mphMostly Cloudy
7:30 AM80.6 °F71.6 °F74 %29.83 in6.2 miVariable1.2 mphMostly Cloudy
8:00 AM80.0 °F72.0 °F70 %29.84 in12.0 miSouth (190°)4.6 mphMostly Cloudy
8:00 AM80.6 °F71.6 °F74 %29.83 in6.2 miSouth (190°)4.6 mphMostly Cloudy
8:30 AM80.6 °F71.6 °F74 %29.83 in6.2 miVariable1.2 mphMostly Cloudy
9:00 AM80.6 °F71.6 °F74 %29.80 in6.2 miNorth (360°)4.6 mphMostly Cloudy
9:30 AM82.4 °F73.4 °F74 %29.80 in6.2 miNW (310°)4.6 mphScattered Clouds
10:00 AM84.2 °F71.6 °F66 %29.80 in6.2 miWest (270°)6.9 mphScattered Clouds
10:30 AM86.0 °F73.4 °F66 %29.80 in6.2 miWest (280°)8.1 mphPartly Cloudy
11:00 AM86.0 °F72.0 °F55 %29.80 in19.0 miWest (280°)15.7 mphScattered Clouds
11:00 AM86.0 °F71.6 °F62 %29.77 in6.2 miWest (280°)8.1 mphScattered Clouds
11:30 AM86.0 °F71.6 °F62 %29.77 in6.2 miWest (280°)5.8 mphPartly Cloudy
12:00 PM86.0 °F71.6 °F62 %29.77 in6.2 miWest (260°)4.6 mphScattered Clouds
12:30 PM86.0 °F69.8 °F58 %29.74 in6.2 miWNW (290°)5.8 mphScattered Clouds
1:00 PM86.0 °F71.6 °F62 %29.74 in6.2 miWNW (290°)10.4 mphMostly Cloudy
1:30 PM86.0 °F71.6 °F62 %29.74 in6.2 miWNW (290°)10.4 mphMostly Cloudy
2:00 PM85.0 °F71.0 °F54 %29.75 in16.0 miWNW (290°)12.7 mphMostly Cloudy
2:00 PM86.0 °F71.6 °F62 %29.74 in6.2 miWNW (290°)12.7 mphMostly Cloudy
2:30 PM86.0 °F69.8 °F58 %29.74 in6.2 miWest (280°)8.1 mphMostly Cloudy
3:00 PM86.0 °F69.8 °F58 %29.71 in6.2 miVariable3.5 mphMostly Cloudy
3:30 PM86.0 °F69.8 °F58 %29.71 in6.2 miNNW (330°)3.5 mphMostly Cloudy
4:00 PM87.8 °F71.6 °F58 %29.71 in6.2 miWest (280°)5.8 mphScattered Clouds
4:30 PM86.0 °F71.6 °F62 %29.71 in6.2 miWest (280°)9.2 mphPartly Cloudy
5:00 PM85.0 °F71.0 °F55 %29.73 in19.0 miWNW (290°)11.5 mphScattered Clouds
5:00 PM84.2 °F71.6 °F66 %29.71 in6.2 miWNW (290°)11.5 mphScattered Clouds
5:30 PM84.2 °F71.6 °F66 %29.74 in6.2 miWNW (290°)11.5 mphScattered Clouds
6:00 PM84.2 °F69.8 °F62 %29.74 in6.2 miWNW (290°)11.5 mphScattered Clouds
6:30 PM82.4 °F69.8 °F66 %29.74 in6.2 miNW (310°)3.5 mphScattered Clouds
7:00 PM82.4 °F68.0 °F62 %29.74 in6.2 miCalmPartly Cloudy
7:30 PM82.4 °F68.0 °F62 %29.77 in6.2 miVariable2.3 mphPartly Cloudy
8:00 PM82.0 °F70.0 °F59 %29.78 in12.0 miNW (310°)4.6 mphPartly Cloudy
8:00 PM82.4 °F69.8 °F66 %29.77 in6.2 miNW (310°)4.6 mphScattered Clouds
8:30 PM82.4 °F69.8 °F66 %29.77 in6.2 miWNW (290°)6.9 mphScattered Clouds
9:00 PM80.6 °F69.8 °F70 %29.77 in6.2 miENE (60°)4.6 mphMostly Cloudy
9:30 PM80.6 °F69.8 °F70 %29.77 in6.2 miVariable2.3 mphMostly Cloudy
10:00 PM78.8 °F69.8 °F74 %29.80 in6.2 miVariable2.3 mphMostly Cloudy
10:30 PM78.8 °F69.8 °F74 %29.80 in6.2 miSouth (170°)2.3 mphScattered Clouds
11:00 PM78.8 °F69.8 °F74 %29.80 in6.2 miVariable2.3 mphMostly Cloudy
11:30 PM78.8 °F69.8 °F74 %29.77 in6.2 miVariable2.3 mphScattered Clouds
Hourly data recorded from NTAA, located miles away from Papeete, French Polynesia







STORIES FROM OUR PARTNERS